Wetbulb
56.23 55.98 55.12 55.58 55.75 55.90 56.11 55.94 55.33 55.18 55.48 55.90 56.08 56.53 56.11 55.07 55.81 49.63 44.43 49.80 52.70 56.27 55.93 50.87 51.10 50.02 49.78 48.57 52.16 53.80 43.71 40.25 42.70 43.02 45.09 47.16 44.66 47.98 48.85 46.28 47.85 51.59 51.05 50.70 48.73
55.50 55.66 54.86 55.11 55.52 55.74 55.89 55.66 54.98 54.95 55.32 55.60 55.83 56.34 54.77 54.56 49.78 46.13 52.50 55.29 55.61 55.90 49.86 48.00 47.18 48.33 45.12 47.60 48.42 45.92 39.59 40.61 45.89 44.49 41.53 43.11 42.30 42.27 41.42 41.13 42.54 45.35 47.24 47.30 47.20
55.35 55.39 54.62 54.65 55.04 55.43 55.70 55.26 54.65 54.85 55.14 55.40 55.77 56.10 54.68 51.81 46.81 44.35 55.49 54.76 55.25 55.01 50.55 49.55 50.07 48.34 44.61 46.45 45.58 45.09 40.97 43.49 43.08 42.42 41.63 40.03 39.55 41.36 38.57 36.78 39.71 39.53 41.94 44.19 44.77
55.04 55.12 54.40 54.34 54.70 55.20 55.46 54.62 54.55 54.82 55.08 55.32 55.66 56.06 54.11 48.64 37.60 46.46 55.48 54.84 56.48 54.19 50.95 48.13 47.14 44.79 43.28 41.21 43.57 37.52 42.38 41.05 42.31 42.08 40.27 38.40 40.18 37.54 38.42 38.73 42.29 41.47 42.73 42.77 42.85
54.79 54.81 54.27 54.05 54.55 55.05 54.93 54.28 54.44 54.72 54.89 55.27 55.48 56.32 48.67 44.45 41.74 49.33 54.71 53.92 51.54 51.06 48.08 46.81 44.60 43.64 39.93 39.64 40.42 38.55 39.28 40.65 41.55 41.12 39.35 40.14 37.18 37.25 38.15 40.98 42.02 42.31 43.40 41.97 42.11
54.61 54.63 54.24 53.82 54.45 54.91 54.41 54.05 54.32 54.49 54.82 54.99 55.27 55.18 46.80 39.89 48.46 49.71 49.54 49.95 49.28 49.19 47.20 46.99 44.46 44.84 41.82 40.01 38.02 39.82 39.79 39.43 40.33 39.58 39.76 37.77 37.17 37.64 38.27 39.34 39.81 42.12 41.43 41.68 42.14
54.69 54.67 54.21 53.74 54.35 54.55 53.99 53.88 54.04 54.07 53.61 54.23 53.97 48.39 44.99 40.88 48.72 49.55 49.84 48.75 49.11 48.71 46.37 47.96 47.43 44.60 43.17 39.71 41.06 39.81 35.20 37.99 38.16 38.45 37.07 38.17 33.89 35.22 38.85 40.74 40.04 39.62 39.80 41.06 42.65
54.74 54.54 54.21 53.56 54.19 54.30 53.53 53.65 53.38 53.47 53.06 52.97 52.62 47.34 41.04 48.06 48.38 47.94 48.96 49.29 49.69 49.60 48.77 48.59 48.65 45.12 42.31 41.94 40.22 36.66 35.23 30.50 36.82 37.28 37.66 35.54 28.10 37.47 40.29 39.86 39.77 39.96 39.30 41.09 42.11
55.02 54.87 54.22 53.40 54.00 53.80 53.33 52.71 52.53 52.88 52.16 52.49 47.66 45.24 39.72 48.87 45.36 47.07 48.04 44.93 47.13 47.99 47.88 46.53 46.51 42.19 41.34 35.15 32.68 33.75 26.23 29.53 32.54 38.46 36.24 34.42 30.49 36.97 40.43 39.98 39.27 38.75 39.40 40.44 40.87
55.19 54.91 54.00 53.26 53.86 53.55 52.95 53.50 53.03 51.50 50.77 47.12 45.34 42.83 43.58 40.59 45.26 45.66 47.99 47.35 44.73 44.63 45.03 43.83 41.06 36.98 33.95 31.17 23.59 25.17 25.37 29.47 29.47 34.60 34.75 31.96 31.89 36.16 38.58 39.32 38.45 36.96 37.21 38.77 42.35
55.31 54.76 53.48 53.35 53.14 52.28 50.50 50.14 45.50 45.12 44.91 39.55 40.26 41.05 41.69 44.55 47.08 44.95 46.50 45.34 44.73 42.32 35.52 38.41 33.38 28.46 30.44 32.35 32.77 31.19 28.55 27.19 32.06 35.15 31.87 30.64 31.42 34.11 37.77 38.93 37.27 37.69 39.05 40.79 42.42
55.22 54.36 52.90 53.01 51.69 51.91 50.43 45.45 43.79 45.70 40.14 42.38 42.10 42.25 43.00 44.24 40.32 42.50 45.61 41.17 39.83 33.88 37.64 34.86 28.48 33.55 35.74 34.99 32.89 30.70 27.22 26.64 30.73 33.93 32.59 30.74 31.33 35.61 38.00 37.80 37.15 37.61 38.48 40.57 42.52
54.94 53.81 52.63 51.96 51.68 49.94 47.23 45.33 49.65 48.45 40.14 38.18 40.82 40.71 40.76 42.91 38.73 38.13 41.53 40.42 36.24 33.82 33.14 30.91 32.72 35.33 33.78 32.24 30.36 28.72 27.03 26.19 25.79 31.14 33.68 31.22 28.35 33.70 37.34 38.34 38.98 39.82 40.28 41.98 42.34
54.74 52.93 52.03 51.08 47.61 45.99 44.88 48.18 49.58 48.95 37.00 35.92 37.14 39.62 41.71 42.34 38.24 42.24 42.35 39.18 37.22 32.43 32.79 31.80 34.31 32.65 30.93 31.11 30.12 23.81 31.63 29.69 28.72 26.68 20.61 31.02 16.90 29.76 33.63 35.48 36.60 37.71 37.70 39.57 40.94
54.24 51.99 50.80 49.89 45.75 44.65 45.97 48.22 48.62 45.31 25.79 35.80 36.87 43.91 41.66 38.38 37.60 38.76 42.66 40.08 32.72 32.64 31.63 27.82 29.35 28.33 30.16 30.35 31.80 26.68 31.50 29.13 29.75 26.48 25.05 25.94 19.60 27.39 34.30 32.49 34.01 35.89 37.78 38.49 40.06
53.72 51.80 49.80 49.35 48.19 46.91 48.66 47.77 44.89 34.48 25.00 29.08 36.96 36.40 36.13 37.70 37.06 39.31 39.13 40.28 37.39 32.69 31.70 30.08 32.98 32.14 31.29 32.54 32.21 32.79 30.65 31.21 28.54 26.59 13.67 25.27 22.98 23.38 28.94 31.91 33.28 36.09 37.12 38.49 38.72
52.94 49.82 48.42 47.46 44.39 47.89 47.36 44.31 33.04 28.21 32.88 30.02 30.03 35.06 33.40 31.97 34.28 34.92 34.24 30.94 27.75 26.42 25.13 28.09 28.78 31.55 32.88 27.37 31.52 31.65 26.46 15.48 13.65 16.81 15.18 28.31 23.62 25.41 32.87 34.03 35.00 35.20 36.00 36.29 37.19
51.45 48.71 45.48 45.17 46.59 47.09 44.94 36.77 25.55 32.89 31.32 31.64 31.10 31.77 29.71 31.00 31.01 32.26 30.59 28.97 30.61 27.64 24.09 20.70 20.34 28.17 31.30 26.86 23.50 27.35 25.50 12.02 3.34 9.93 15.32 25.95 17.63 26.25 34.88 35.86 36.47 36.98 36.17 35.90 36.21
48.61 44.93 44.53 43.57 45.92 43.97 40.84 30.34 31.19 34.00 32.31 30.01 29.35 28.35 28.02 28.70 28.70 29.21 27.68 28.52 29.94 28.47 22.55 20.79 22.56 28.77 30.52 30.73 30.48 26.21 20.39 28.13 12.91 15.78 14.58 20.78 26.85 33.08 35.21 34.00 35.01 34.20 34.19 34.09 34.76
43.94 42.46 40.79 43.32 43.02 41.88 32.39 30.65 32.31 33.30 32.86 32.89 29.47 28.34 26.03 24.66 25.92 26.72 26.46 30.39 29.83 31.75 30.37 24.30 16.90 26.20 28.11 29.82 31.50 27.49 30.00 17.43 18.51 4.47 4.65 17.38 21.68 22.34 28.80 30.95 32.30 31.52 31.83 33.40 34.78
43.31 38.88 41.14 43.03 41.09 36.44 28.44 30.88 32.59 33.56 34.98 31.37 30.09 24.16 29.48 24.09 27.81 26.78 27.16 28.84 32.66 30.59 30.38 26.86 22.42 22.27 24.89 23.04 24.40 21.72 20.30 20.52 21.05 18.61 8.42 8.28 16.48 29.30 30.48 31.91 30.03 31.11 32.68 33.96 33.21
41.37 33.20 41.19 41.14 32.20 32.02 30.46 32.64 34.27 31.64 34.59 32.70 31.35 30.54 28.34 28.24 25.16 26.38 26.88 28.02 34.00 32.02 24.36 27.11 24.74 17.39 21.68 27.45 27.90 25.89 25.22 23.40 10.43 11.95 18.70 15.22 15.90 32.72 33.48 34.12 31.95 31.71 32.81 33.90 32.38
37.33 33.44 41.45 40.76 29.32 28.64 32.65 30.62 32.24 31.37 32.20 31.44 28.98 30.95 29.63 26.14 23.71 27.31 27.47 31.92 33.42 30.54 25.63 27.28 19.67 11.95 19.55 23.15 26.10 23.09 26.56 27.40 19.10 16.43 13.35 5.60 15.31 34.85 34.07 32.45 31.33 31.32 31.99 31.78 30.62
36.56 29.87 32.44 34.74 34.02 33.76 30.66 30.33 29.43 35.50 33.74 34.23 30.56 30.63 27.78 23.81 26.69 23.44 27.06 29.24 31.64 31.24 32.48 30.39 22.38 15.24 15.52 19.04 21.31 20.46 22.28 25.08 17.24 8.51 9.64 15.90 17.16 26.82 27.99 25.92 29.41 31.75 30.26 30.60 29.79
38.99 33.20 33.06 26.88 29.00 31.25 33.55 32.88 29.42 29.07 32.70 33.33 29.59 29.18 28.86 21.47 24.51 22.75 26.80 26.72 29.82 32.79 29.63 27.65 15.38 18.10 19.09 21.52 20.83 20.78 20.78 21.90 18.03 16.81 11.16 19.38 13.27 22.28 25.04 26.33 23.86 32.54 29.76 29.55 28.11
35.80 32.88 33.03 32.58 33.25 31.65 32.45 30.42 30.64 30.72 29.83 28.94 28.63 30.37 29.87 25.20 27.81 24.80 26.76 26.12 24.94 28.34 26.67 28.12 16.60 20.66 14.48 20.75 21.26 19.28 21.56 21.82 22.23 21.43 20.95 21.57 20.85 29.17 30.92 30.62 28.23 30.71 28.74 28.19 26.83
40.02 39.26 39.31 34.04 32.04 30.98 30.68 31.95 31.89 32.07 31.87 33.08 31.51 30.87 28.44 30.28 30.49 31.23 31.13 30.95 29.01 25.73 24.32 23.85 19.35 12.45 11.15 20.01 18.82 11.34 20.27 21.28 18.92 20.08 17.67 14.40 21.96 27.11 26.38 25.52 28.71 28.34 28.37 27.85 26.30
MSLP
1019.57 1019.31 1019.08 1018.70 1018.54 1018.29 1017.91 1017.67 1017.33 1016.99 1016.65 1016.24 1015.85 1015.45 1015.18 1014.82 1014.26 1013.78 1014.12 1015.12 1014.52 1013.84 1013.02 1011.73 1011.60 1011.34 1011.17 1010.90 1010.98 1010.75 1010.84 1010.44 1010.05 1009.89 1009.71 1009.99 1010.04 1009.81 1009.73 1009.78 1009.57 1009.07 1008.88 1009.19 1009.37
1019.67 1019.45 1019.17 1018.76 1018.60 1018.35 1017.99 1017.74 1017.32 1017.01 1016.67 1016.21 1015.89 1015.53 1015.17 1014.90 1014.54 1014.21 1015.21 1014.64 1014.19 1013.58 1012.81 1012.00 1011.36 1011.24 1011.09 1010.96 1011.29 1011.24 1011.15 1010.76 1010.71 1010.94 1011.10 1010.99 1011.06 1011.00 1010.82 1010.35 1009.81 1009.36 1008.80 1009.13 1009.53
1019.79 1019.58 1019.19 1018.86 1018.64 1018.31 1018.03 1017.70 1017.30 1016.94 1016.59 1016.21 1015.90 1015.46 1015.17 1015.02 1014.51 1014.71 1014.77 1014.49 1014.06 1013.42 1012.73 1012.40 1011.88 1011.25 1011.15 1011.15 1011.45 1011.37 1011.35 1011.49 1011.34 1011.78 1012.05 1011.77 1011.42 1011.44 1011.11 1010.44 1010.07 1009.95 1009.82 1009.61 1009.83
1019.87 1019.64 1019.25 1018.96 1018.68 1018.39 1017.99 1017.61 1017.24 1016.84 1016.46 1016.16 1015.90 1015.41 1015.00 1014.83 1015.26 1014.90 1014.74 1014.34 1013.76 1012.96 1012.25 1012.24 1012.01 1011.58 1011.44 1011.67 1011.96 1012.11 1011.66 1011.91 1011.96 1012.27 1012.58 1012.34 1012.03 1011.63 1011.17 1010.36 1010.12 1010.10 1010.07 1010.14 1010.29
1019.87 1019.61 1019.32 1019.02 1018.74 1018.41 1017.97 1017.48 1017.07 1016.70 1016.35 1016.05 1015.76 1015.37 1015.15 1014.80 1015.33 1014.98 1014.86 1014.35 1013.65 1013.06 1012.91 1012.49 1012.32 1012.29 1012.07 1012.34 1012.48 1012.46 1012.33 1012.41 1012.26 1012.42 1012.49 1012.34 1012.30 1012.13 1010.90 1010.04 1009.90 1009.78 1009.88 1009.96 1009.92
1019.86 1019.56 1019.30 1019.00 1018.71 1018.33 1017.90 1017.45 1016.91 1016.51 1016.26 1015.99 1015.62 1015.27 1015.02 1014.98 1015.34 1015.02 1014.87 1014.59 1014.31 1013.74 1013.62 1013.32 1013.40 1013.16 1013.02 1013.16 1013.24 1013.37 1013.07 1012.74 1012.48 1012.69 1012.79 1012.84 1012.27 1012.33 1010.41 1009.75 1009.68 1009.80 1009.75 1009.65 1009.47
1019.78 1019.55 1019.31 1019.01 1018.67 1018.21 1017.76 1017.26 1016.79 1016.38 1016.19 1015.89 1015.57 1015.11 1014.56 1015.47 1015.08 1015.08 1014.82 1014.77 1014.59 1014.43 1014.07 1014.11 1013.78 1013.39 1013.69 1013.74 1014.06 1013.80 1013.52 1012.50 1012.76 1012.83 1013.10 1013.15 1012.39 1011.32 1010.39 1009.98 1009.74 1009.70 1009.54 1009.34 1009.31
1019.78 1019.56 1019.25 1018.88 1018.51 1018.04 1017.55 1017.00 1016.55 1016.28 1016.04 1015.76 1015.56 1015.09 1015.09 1015.37 1015.30 1015.25 1015.04 1014.58 1014.62 1014.62 1014.46 1014.33 1014.15 1013.98 1014.04 1014.35 1014.28 1013.94 1013.60 1013.23 1012.92 1012.96 1013.26 1013.46 1012.32 1010.85 1010.29 1010.05 1009.80 1009.21 1009.12 1009.10 1009.20
1019.77 1019.50 1019.18 1018.78 1018.38 1017.91 1017.38 1016.81 1016.32 1016.12 1015.86 1015.70 1015.52 1015.12 1015.32 1015.44 1015.54 1015.61 1015.34 1015.19 1014.75 1014.53 1014.45 1014.27 1014.04 1014.19 1014.42 1014.41 1014.54 1014.56 1014.74 1014.26 1013.70 1013.12 1013.24 1013.35 1012.07 1010.82 1010.45 1010.03 1009.28 1008.82 1008.82 1008.96 1009.18
1019.67 1019.46 1019.14 1018.72 1018.31 1017.78 1017.09 1016.41 1015.90 1015.86 1015.48 1015.19 1015.12 1015.42 1015.46 1015.82 1015.79 1015.73 1015.41 1015.29 1014.89 1014.42 1014.37 1014.25 1014.25 1014.59 1015.51 1015.21 1016.10 1016.25 1015.97 1015.42 1014.91 1013.80 1013.80 1013.42 1011.79 1010.84 1010.10 1009.66 1008.83 1008.64 1008.77 1009.07 1009.37
1019.53 1019.41 1019.09 1018.67 1018.28 1017.71 1017.01 1016.10 1016.47 1016.40 1015.88 1016.12 1016.18 1015.94 1015.94 1016.10 1015.81 1015.60 1015.55 1015.26 1014.72 1014.34 1014.37 1014.52 1015.12 1016.01 1016.67 1016.90 1017.11 1017.02 1016.70 1015.87 1014.83 1014.54 1014.50 1013.36 1012.03 1010.25 1009.50 1009.01 1008.41 1008.50 1008.75 1008.90 1008.99
1019.32 1019.25 1019.05 1018.68 1018.28 1017.61 1017.24 1017.04 1018.01 1018.20 1017.29 1016.67 1016.52 1016.33 1016.44 1016.45 1015.95 1015.85 1015.79 1015.36 1014.69 1014.83 1014.74 1015.33 1016.13 1016.89 1016.96 1017.04 1017.17 1017.22 1016.99 1016.20 1015.16 1015.29 1015.42 1013.65 1011.79 1009.66 1008.59 1008.31 1008.30 1008.76 1009.13 1009.15 1009.18
1019.14 1019.10 1018.99 1018.67 1018.13 1017.85 1017.70 1018.31 1018.33 1018.03 1017.52 1016.96 1016.81 1016.61 1016.76 1016.69 1016.56 1016.67 1016.51 1015.92 1015.68 1015.50 1015.64 1015.86 1016.93 1017.05 1017.07 1017.09 1017.29 1017.33 1017.21 1017.26 1017.09 1016.15 1014.75 1014.25 1011.93 1009.77 1008.55 1008.45 1008.51 1008.58 1008.83 1009.04 1009.27
1019.05 1019.04 1018.93 1018.60 1018.64 1018.14 1018.26 1018.46 1018.37 1018.11 1017.84 1017.33 1017.06 1017.04 1016.79 1016.63 1016.86 1017.06 1017.00 1016.93 1016.14 1016.42 1016.54 1016.83 1017.31 1017.41 1017.47 1017.39 1017.91 1017.64 1017.41 1017.75 1017.81 1017.31 1016.63 1015.40 1014.09 1011.04 1009.31 1008.66 1008.73 1008.74 1009.17 1009.38 1009.64
1019.01 1019.01 1019.00 1018.72 1018.77 1018.44 1018.92 1018.57 1018.36 1018.47 1018.18 1017.70 1017.38 1017.27 1016.78 1016.79 1017.23 1017.21 1017.42 1016.86 1016.99 1016.96 1017.16 1017.61 1017.71 1017.79 1017.71 1017.93 1018.15 1018.04 1017.76 1017.94 1017.90 1017.62 1017.46 1015.69 1015.02 1011.37 1009.91 1009.33 1009.15 1009.44 1009.82 1010.00 1010.26
1018.80 1019.02 1018.93 1018.69 1018.72 1019.04 1018.77 1018.70 1018.56 1018.95 1017.98 1017.72 1017.58 1017.41 1016.92 1016.73 1016.99 1016.96 1017.18 1017.39 1017.60 1017.42 1017.53 1017.92 1018.52 1018.51 1018.43 1018.31 1018.19 1018.28 1017.94 1017.61 1017.87 1018.21 1017.67 1015.95 1015.21 1011.69 1010.38 1009.93 1009.77 1010.01 1010.24 1010.52 1010.63
1018.61 1018.90 1019.07 1018.88 1019.22 1018.94 1018.83 1018.81 1019.09 1018.85 1018.42 1018.12 1017.91 1017.95 1017.38 1017.38 1017.16 1017.17 1017.30 1017.93 1018.37 1018.33 1018.21 1018.08 1018.47 1018.82 1019.02 1018.72 1018.56 1018.65 1019.12 1019.78 1019.61 1019.15 1017.66 1016.26 1015.16 1011.70 1010.21 1009.95 1010.19 1010.33 1010.62 1010.90 1011.00
1018.82 1019.03 1019.34 1019.68 1019.38 1019.00 1018.93 1019.25 1019.43 1018.40 1018.42 1018.38 1018.24 1018.29 1018.32 1018.46 1018.25 1017.76 1017.76 1018.27 1018.88 1019.30 1019.27 1019.32 1019.01 1019.10 1019.43 1019.47 1019.81 1019.93 1020.99 1022.06 1022.42 1021.25 1019.10 1017.00 1014.70 1011.29 1009.90 1009.85 1010.30 1010.91 1011.25 1011.40 1011.28
1018.46 1019.57 1019.76 1020.09 1019.58 1019.20 1019.32 1019.70 1018.55 1018.30 1018.31 1018.49 1018.94 1018.97 1019.22 1019.19 1018.87 1018.39 1018.55 1018.82 1019.35 1019.69 1020.54 1020.30 1019.52 1019.55 1019.97 1019.92 1020.35 1020.68 1021.50 1022.21 1023.02 1022.50 1021.06 1017.25 1013.76 1011.10 1010.43 1010.32 1010.78 1011.48 1011.72 1011.84 1011.69
1018.65 1019.83 1020.13 1020.54 1019.73 1019.58 1020.14 1019.75 1018.73 1018.22 1018.40 1018.55 1018.94 1019.36 1019.62 1019.70 1019.57 1019.16 1019.00 1019.35 1019.95 1020.30 1020.61 1021.35 1020.95 1019.80 1020.46 1020.59 1020.81 1021.16 1022.05 1022.86 1023.65 1023.95 1021.97 1017.75 1014.66 1012.16 1011.03 1010.97 1011.58 1011.90 1012.05 1012.05 1011.89
1018.36 1019.69 1020.77 1020.04 1020.37 1020.37 1020.87 1019.75 1018.81 1018.56 1018.66 1018.78 1018.93 1019.37 1019.77 1019.92 1020.12 1019.69 1019.53 1019.91 1019.95 1020.68 1020.97 1021.26 1022.45 1020.93 1020.71 1020.57 1020.60 1021.78 1022.26 1023.13 1023.57 1023.93 1023.28 1020.14 1015.12 1011.91 1011.43 1011.67 1011.90 1012.12 1012.28 1012.29 1012.09
1018.21 1019.68 1020.93 1020.33 1021.42 1021.34 1020.41 1019.48 1019.04 1018.94 1019.20 1019.07 1019.06 1019.15 1019.66 1020.17 1020.27 1019.91 1019.95 1019.94 1020.19 1020.82 1021.65 1022.21 1022.71 1022.15 1020.60 1020.23 1020.47 1021.29 1021.68 1022.52 1023.62 1024.15 1023.31 1021.55 1016.48 1012.24 1011.62 1011.69 1012.24 1012.58 1012.72 1012.81 1012.83
1018.29 1019.89 1021.04 1020.33 1020.59 1020.92 1020.10 1019.46 1019.17 1019.05 1019.27 1019.29 1019.32 1019.44 1020.05 1020.33 1020.46 1020.22 1020.41 1020.89 1020.81 1021.26 1022.00 1022.54 1023.24 1022.95 1021.54 1021.26 1021.08 1021.43 1021.39 1022.21 1023.36 1024.18 1023.70 1022.50 1016.23 1011.88 1011.88 1012.57 1013.16 1013.30 1013.35 1013.27 1012.86
1017.61 1019.61 1020.94 1020.80 1019.99 1019.51 1019.78 1019.40 1019.16 1018.94 1019.10 1019.31 1019.42 1019.71 1020.21 1020.50 1020.70 1020.96 1020.94 1021.49 1021.65 1021.84 1022.67 1023.01 1023.48 1023.42 1022.48 1021.67 1021.20 1021.41 1021.17 1021.86 1023.04 1024.14 1022.94 1020.00 1016.74 1013.93 1013.65 1013.92 1013.76 1013.97 1014.15 1013.59 1013.38
1016.59 1016.72 1017.76 1019.21 1019.32 1019.04 1018.77 1018.77 1018.81 1018.98 1019.30 1019.49 1019.55 1019.29 1019.60 1020.57 1020.89 1021.02 1021.06 1021.85 1022.28 1022.48 1023.14 1023.73 1024.07 1023.63 1022.69 1022.00 1021.61 1020.88 1020.79 1021.33 1021.74 1021.74 1021.79 1018.27 1017.88 1015.15 1014.71 1014.75 1014.59 1014.46 1014.26 1013.93 1013.65
1014.56 1015.46 1017.21 1017.43 1016.88 1018.21 1018.10 1018.15 1018.16 1018.63 1019.21 1019.13 1019.11 1018.81 1019.47 1019.76 1019.47 1020.12 1020.25 1021.27 1021.72 1022.84 1023.40 1023.73 1024.20 1024.06 1022.79 1021.74 1021.19 1020.19 1019.30 1019.42 1020.09 1020.42 1020.20 1019.14 1017.43 1015.14 1014.82 1014.96 1014.81 1014.95 1015.01 1014.65 1014.32
1013.64 1014.13 1013.85 1015.98 1016.83 1017.11 1016.51 1016.82 1016.76 1017.61 1018.45 1017.95 1018.23 1019.06 1019.41 1019.21 1019.74 1019.97 1020.23 1020.49 1021.31 1022.22 1023.32 1023.84 1024.85 1024.87 1024.08 1022.28 1020.89 1018.68 1016.07 1017.10 1017.50 1017.72 1018.19 1018.13 1015.57 1014.77 1014.70 1015.11 1015.20 1015.64 1015.76 1015.37 1014.97
Wind_Speed
14 15 15 15 15 15 15 15 15 15 14 13 14 14 12 11 15 14 13 10 13 17 20 7 4 3 4 2 4 3 3 5 11 7 4 9 8 7 7 7 10 10 4 5 7
14 15 15 15 15 15 15 15 15 15 15 14 13 12 10 7 6 13 12 17 16 15 10 10 5 5 4 2 3 3 4 5 5 8 8 10 9 9 9 11 10 12 10 9 9
13 14 15 16 15 16 15 15 16 15 15 14 13 12 8 6 4 8 18 17 16 15 3 4 5 5 3 1 3 2 3 7 9 7 8 10 11 8 8 7 7 8 10 11 7
13 14 15 16 16 16 16 16 16 16 14 13 13 12 8 5 2 9 16 15 15 11 3 1 3 2 3 3 2 4 2 4 5 6 4 7 10 8 11 12 9 8 8 5 8
12 13 15 15 16 16 16 17 17 15 13 13 13 12 6 4 5 10 11 11 8 8 12 5 7 5 2 3 3 4 6 4 2 4 6 8 9 11 17 18 10 5 4 8 8
11 13 15 16 16 16 17 17 16 14 12 12 13 12 5 3 4 9 7 6 10 10 10 11 5 7 5 4 5 6 7 8 3 6 7 9 14 7 9 2 1 7 9 9 10
11 13 14 15 16 16 17 18 15 12 11 10 12 6 6 3 2 7 7 3 5 7 7 7 6 3 3 2 3 4 5 7 7 5 3 6 11 8 11 6 7 8 9 9 6
11 12 14 15 16 16 18 18 15 10 9 9 10 6 4 2 6 10 9 0 4 2 2 2 3 1 2 2 5 5 3 5 6 3 5 3 7 19 11 11 16 10 8 7 4
10 11 14 16 16 17 19 18 12 9 8 9 5 2 3 2 3 7 5 5 5 2 3 3 4 3 2 3 2 2 5 8 9 5 1 3 13 16 14 17 14 8 7 5 2
10 11 14 15 16 17 19 14 4 9 6 4 4 2 3 4 4 7 5 5 3 4 3 2 2 1 6 7 2 4 5 6 12 6 7 13 24 20 15 18 11 5 2 2 6
8 11 13 15 17 18 11 3 2 2 6 4 4 3 3 7 1 7 5 5 4 2 3 2 6 5 5 6 2 5 8 10 14 10 12 10 20 24 16 14 6 5 6 8 6
7 10 13 14 17 16 7 3 3 1 1 1 0 2 1 3 3 10 13 2 2 3 1 0 4 3 2 2 4 7 9 9 9 14 17 11 22 23 15 7 3 5 7 8 6
5 7 11 14 15 7 4 4 3 3 4 3 1 2 2 5 4 7 10 5 4 4 5 4 4 1 2 3 5 6 6 8 10 17 12 9 9 8 6 6 3 7 6 5 7
6 5 8 15 5 3 2 3 3 3 2 3 3 1 1 1 2 3 4 2 2 3 4 4 3 1 3 1 4 4 6 9 13 9 4 8 7 6 3 6 3 6 8 7 8
6 4 5 6 5 1 2 3 3 3 3 3 1 1 2 2 2 2 1 4 3 2 2 2 1 2 3 3 3 8 11 12 14 6 6 2 1 8 10 7 8 9 8 10 13
6 3 5 2 2 2 3 3 1 5 6 1 2 2 4 2 2 2 2 3 2 1 1 5 1 2 5 6 4 10 9 10 1 2 1 2 2 8 4 5 7 7 9 14 17
7 4 2 1 1 3 3 2 5 4 2 1 1 4 2 2 3 3 3 4 3 3 3 4 4 3 2 4 3 7 7 5 7 2 6 6 5 10 11 5 4 8 10 15 20
9 7 3 2 3 4 1 4 2 2 5 0 2 1 1 3 2 1 1 3 5 4 2 2 5 3 1 3 2 5 3 5 4 4 7 9 8 7 4 4 4 12 14 18 20
15 1 2 3 5 2 5 1 7 5 4 7 3 2 2 1 1 1 2 2 4 4 2 3 2 4 2 2 1 1 2 1 0 4 2 6 7 9 5 4 9 13 16 20 20
5 2 2 7 4 2 5 6 4 1 3 2 4 2 4 3 3 4 4 1 4 2 1 1 5 2 3 2 2 3 1 1 1 4 7 8 7 7 8 9 10 17 18 20 20
4 4 2 4 3 5 4 6 3 0 2 2 4 4 2 4 3 3 4 1 3 5 1 4 1 1 2 6 5 1 1 2 2 2 4 6 8 3 6 8 15 18 19 21 21
3 2 2 2 4 2 4 6 1 3 1 2 2 2 5 6 4 2 3 1 5 7 4 3 1 5 3 5 4 4 4 5 6 5 4 2 12 8 6 16 18 18 18 19 18
5 3 2 2 5 4 2 2 1 4 3 3 4 1 2 5 1 2 3 3 4 5 5 5 2 5 3 4 1 5 6 5 5 3 7 4 11 1 16 16 17 17 17 18 19
5 4 1 1 1 5 4 4 4 3 0 3 2 4 3 1 3 4 5 3 3 1 5 1 1 7 7 3 3 6 6 10 8 4 5 13 14 25 19 17 17 15 15 19 16
4 5 6 7 6 5 10 8 8 7 2 5 4 7 6 4 3 4 4 5 3 6 4 3 4 5 7 16 9 14 15 12 11 12 9 13 8 26 22 17 7 13 18 20 18
6 5 1 3 7 14 11 10 11 5 10 7 6 6 8 5 5 8 8 6 6 7 6 4 4 3 8 7 8 14 13 15 17 16 16 21 28 25 15 6 10 12 17 18 18
2 1 6 11 6 10 9 11 15 13 8 3 7 4 8 6 6 5 3 6 7 8 7 6 2 3 8 5 8 8 8 14 6 6 8 8 15 4 9 8 5 10 14 15 16
Wind_Direction
352 354 352 350 347 346 346 343 344 344 342 343 346 344 339 333 316 38 35 335 330 327 312 270 224 162 214 230 336 303 270 260 271 320 11 44 13 342 353 305 292 265 242 68 42
349 350 349 349 345 343 343 339 341 340 335 336 337 340 341 341 288 48 0 349 342 329 333 342 84 195 148 168 182 254 216 307 24 17 350 345 352 319 300 292 284 301 311 26 24
345 346 347 345 341 339 336 336 337 335 333 332 329 334 333 309 254 15 0 349 335 315 360 317 305 297 110 243 128 258 245 11 37 25 356 323 308 337 306 268 266 322 325 340 356
341 343 345 343 338 334 333 334 334 331 330 328 324 326 323 264 35 357 357 342 317 302 330 228 252 237 169 177 80 279 61 7 328 24 312 309 314 299 270 267 298 307 285 341 293
336 340 342 340 334 331 331 331 331 329 326 323 321 321 286 93 26 346 347 337 357 356 18 5 44 329 82 56 241 247 19 322 313 324 304 316 292 284 292 288 282 317 327 266 292
330 337 339 336 332 330 329 329 332 329 324 320 319 326 253 76 326 356 345 360 15 358 39 33 31 321 56 30 351 351 317 294 338 313 311 296 298 318 282 326 102 273 274 282 282
327 332 333 333 329 328 327 327 327 326 319 320 324 305 51 98 312 2 350 2 2 9 30 30 328 53 304 148 8 283 296 241 205 234 280 355 281 208 248 294 315 280 266 277 285
320 324 328 330 327 325 323 322 321 314 311 315 317 293 60 73 333 14 359 157 10 17 341 348 309 157 62 177 221 241 161 3 163 83 146 25 280 294 335 322 303 277 275 276 310
311 319 326 329 326 324 320 314 304 288 285 291 272 288 85 138 340 345 16 339 291 225 289 266 279 336 123 268 192 50 321 336 337 319 244 201 286 267 302 293 287 271 260 263 329
306 316 324 328 326 322 319 298 300 300 235 247 259 226 64 352 340 305 23 310 308 269 219 231 251 79 34 12 82 318 320 322 301 290 338 314 278 288 289 281 280 294 332 275 247
298 315 324 327 325 322 329 261 213 161 42 39 24 318 44 337 157 27 344 301 225 244 36 43 70 51 21 30 1 274 277 281 292 329 347 285 290 285 286 285 277 242 201 224 245
289 315 323 325 325 315 287 20 49 15 255 92 106 140 35 330 302 33 339 306 309 64 323 14 89 60 299 217 284 313 309 299 308 354 312 296 292 290 276 249 62 6 328 329 335
267 309 321 321 322 308 58 49 343 309 256 116 53 12 357 319 53 356 0 313 355 49 345 63 103 223 257 301 1 309 295 344 308 328 285 323 288 350 5 93 196 235 218 244 253
251 295 321 319 308 325 58 11 323 321 43 239 174 123 177 323 107 6 15 354 118 35 348 61 135 300 280 353 46 298 41 332 308 332 304 12 289 299 35 223 169 29 6 349 349
236 277 312 358 305 346 360 321 322 258 340 57 75 349 223 43 339 98 289 265 27 27 274 124 69 343 284 55 14 250 316 291 272 267 306 325 56 264 301 12 356 10 3 355 348
207 241 311 247 214 36 319 299 255 38 255 82 324 231 193 75 100 270 197 152 339 235 287 86 51 301 341 301 239 280 295 298 69 225 358 205 88 280 286 346 345 353 346 344 327
178 132 302 312 31 333 326 248 37 176 0 256 112 306 345 68 115 40 57 19 17 32 20 169 152 107 307 304 162 15 1 342 355 333 231 157 287 246 290 35 352 306 347 339 330
142 146 42 32 343 327 297 44 169 233 229 118 133 144 343 340 71 69 202 158 71 353 317 35 319 173 149 43 345 53 73 131 254 297 286 285 233 255 338 109 318 10 339 338 326
129 10 57 359 339 307 81 53 219 207 174 153 76 103 327 273 337 169 52 54 69 38 74 347 231 115 16 26 325 132 110 50 215 237 316 242 279 290 126 343 20 345 338 335 327
110 106 102 315 339 18 73 250 236 173 149 145 172 146 172 212 206 192 160 75 122 77 359 13 305 96 133 212 94 50 346 118 38 331 299 284 291 250 340 321 352 341 336 335 330
91 132 16 28 312 54 193 237 259 88 293 207 189 151 188 186 221 198 160 165 138 130 11 104 216 199 119 201 156 134 181 280 113 188 219 304 266 306 299 353 352 341 344 337 330
118 161 5 42 91 242 192 204 308 153 226 263 278 126 178 169 172 191 191 126 154 137 140 55 183 265 215 106 69 312 220 171 132 263 244 208 267 269 279 357 354 341 337 335 328
124 97 351 36 166 205 232 187 270 154 211 200 232 157 100 190 142 133 117 31 124 144 161 181 228 320 331 20 111 232 195 214 100 88 222 154 261 212 337 341 337 339 338 332 335
126 138 101 357 342 162 154 199 203 184 174 198 139 115 123 99 27 180 154 175 139 95 93 114 244 201 201 193 96 230 201 196 142 162 234 230 278 294 309 321 326 334 332 339 339
185 180 182 175 196 200 171 171 181 178 248 197 217 210 169 149 140 211 146 116 169 153 181 230 224 214 236 264 265 261 250 237 211 204 189 269 291 290 298 310 298 330 343 341 341
155 154 81 173 133 178 189 196 186 139 172 222 215 158 210 189 199 192 138 170 185 166 181 194 263 11 293 242 236 259 247 232 234 240 253 263 278 280 285 297 336 352 344 340 341
104 9 137 158 162 175 184 190 201 142 231 168 185 146 206 205 83 58 57 116 140 149 185 156 217 68 269 341 311 304 229 198 200 186 174 202 234 296 322 323 351 352 343 340 343